Bastrop, LA

8:46 PM CST on December 09, 2016 (GMT -0600)
Bastrop

Weather History for KBQP - January, 2014

Change the Weather History Date:

Saturday, January 25, 2014

  Actual Average (KMLU) Record (KMLU)
Temperature  
Mean Temperature 44 °F -  
Max Temperature 62 °F 57 °F 81 °F (1950)
Min Temperature 26 °F 38 °F 13 °F (1963)
Degree Days  
Heating Degree Days 21    
Moisture  
Dew Point 22 °F    
Average Humidity 50    
Maximum Humidity 72    
Minimum Humidity 20    
Precipitation  
Precipitation 0.00 in - - ()
Sea Level Pressure  
Sea Level Pressure 30.11 in    
Wind  
Wind Speed 2 mph (SW)    
Max Wind Speed 10 mph    
Max Gust Speed -    
Visibility 10 miles    
Events      
Averages and records for this station are not official NWS values.
T = Trace of Precipitation, MM = Missing Value Source: NWS Daily Summary

Daily Weather History Graph

Daily Weather History Graph

Search for Another Location

Airport or City:

Trip Planner

Search our weather history database for the weather conditions in past years. The results will help you decide how hot, cold, wet, or windy it might be!

Date:

Astronomy

Jan. 25, 2014 Rise Set
Actual Time 7:06 AM CST 5:33 PM CST
Civil Twilight 6:40 AM CST 5:59 PM CST
Nautical Twilight 6:10 AM CST 6:29 PM CST
Astronomical Twilight 5:41 AM CST 6:58 PM CST
Moon 1:40 AM CST (1/25) 12:34 PM CST (1/25)
Length of Visible Light 11h 19m
Length of Day
10h 27m
Waning Crescent, 34% of the Moon is Illuminated
Jan 25
Waning Crescent
Jan 30
New
Feb 6
First Quarter
Feb 14
Full
Feb 22
Last Quarter

Hourly Weather History & Observations

Time (CST) Temp. Windchill Dew Point Humidity Pressure Visibility Wind Dir Wind Speed Gust Speed Precip Events Conditions
12:15 AM 28.4 °F 21.2 °F 12.6 °F 52% 30.28 in 10.0 mi SSW 6.9 mph - N/A   Clear
12:35 AM 28.4 °F - 13.1 °F 53% 30.27 in 10.0 mi Calm Calm - N/A   Clear
12:55 AM 28.0 °F - 13.8 °F 55% 30.27 in 10.0 mi Calm Calm - N/A   Clear
1:15 AM 27.9 °F - 14.4 °F 57% 30.27 in 10.0 mi Calm Calm - N/A   Clear
1:35 AM 27.1 °F - 14.7 °F 60% 30.26 in 10.0 mi Calm Calm - N/A   Clear
1:55 AM 26.8 °F - 15.1 °F 61% 30.25 in 10.0 mi Calm Calm - N/A   Clear
2:15 AM 26.6 °F - 15.6 °F 63% 30.25 in 10.0 mi Calm Calm - N/A   Clear
2:35 AM 27.3 °F - 16.3 °F 63% 30.24 in 10.0 mi Calm Calm - N/A   Clear
2:55 AM 27.7 °F - 17.1 °F 64% 30.24 in 10.0 mi Calm Calm - N/A   Clear
3:15 AM 28.4 °F 23.3 °F 17.6 °F 64% 30.22 in 10.0 mi SSW 4.6 mph - N/A   Clear
3:35 AM 28.9 °F 23.9 °F 18.3 °F 65% 30.21 in 10.0 mi SW 4.6 mph - N/A   Clear
3:55 AM 28.9 °F 21.9 °F 18.5 °F 65% 30.20 in 10.0 mi SSW 6.9 mph - N/A   Clear
4:15 AM 28.6 °F 21.5 °F 18.9 °F 67% 30.19 in 10.0 mi SSW 6.9 mph - N/A   Clear
4:35 AM 29.3 °F 21.5 °F 19.4 °F 67% 30.18 in 10.0 mi SW 8.1 mph - N/A   Clear
4:55 AM 29.3 °F 22.3 °F 19.4 °F 67% 30.17 in 10.0 mi SSW 6.9 mph - N/A   Clear
5:15 AM 29.3 °F - 19.0 °F 66% 30.16 in 10.0 mi Calm Calm - N/A   Clear
5:35 AM 28.4 °F - 19.0 °F 68% 30.15 in 10.0 mi Calm Calm - N/A   Clear
5:55 AM 28.2 °F - 19.0 °F 68% 30.15 in 10.0 mi Calm Calm - N/A   Clear
6:15 AM 28.0 °F - 19.2 °F 70% 30.15 in 10.0 mi Calm Calm - N/A   Clear
6:35 AM 28.0 °F - 19.2 °F 70% 30.15 in 10.0 mi Calm Calm - N/A   Clear
6:55 AM 28.0 °F - 19.4 °F 70% 30.15 in 10.0 mi Calm Calm - N/A   Clear
7:15 AM 28.2 °F - 19.9 °F 71% 30.15 in 10.0 mi Calm Calm - N/A   Clear
7:35 AM 28.4 °F - 20.3 °F 72% 30.15 in 10.0 mi Calm Calm - N/A   Clear
7:55 AM 30.0 °F - 20.7 °F 68% 30.14 in 10.0 mi Calm Calm - N/A   Clear
8:15 AM 31.8 °F 25.4 °F 20.8 °F 64% 30.13 in 10.0 mi SSW 6.9 mph - N/A   Clear
8:35 AM 33.3 °F - 21.2 °F 61% 30.13 in 10.0 mi Calm Calm - N/A   Clear
8:55 AM 35.8 °F 30.1 °F 21.2 °F 55% 30.13 in 10.0 mi SW 6.9 mph - N/A   Clear
9:15 AM 38.1 °F 31.7 °F 21.2 °F 51% 30.13 in 10.0 mi SW 9.2 mph - N/A   Clear
9:35 AM 40.5 °F 34.6 °F 21.0 °F 46% 30.14 in 10.0 mi WSW 9.2 mph - N/A   Clear
9:55 AM 42.6 °F 37.8 °F 21.0 °F 42% 30.15 in 10.0 mi WSW 8.1 mph - N/A   Clear
10:15 AM 44.4 °F 40.5 °F 21.0 °F 39% 30.14 in 10.0 mi WSW 6.9 mph - N/A   Clear
10:35 AM 46.6 °F - 21.0 °F 36% 30.12 in 10.0 mi Calm Calm - N/A   Clear
10:55 AM 47.5 °F - 20.3 °F 34% 30.12 in 10.0 mi Calm Calm - N/A   Clear
11:15 AM 51.1 °F - 19.8 °F 29% 30.11 in 10.0 mi West 6.9 mph - N/A   Clear
11:35 AM 52.3 °F - 19.8 °F 28% 30.09 in 10.0 mi SW 9.2 mph - N/A   Clear
11:55 AM 53.4 °F - 20.1 °F 27% 30.08 in 10.0 mi SW 10.4 mph - N/A   Clear
12:15 PM 54.3 °F - 19.8 °F 26% 30.07 in 10.0 mi WSW 8.1 mph - N/A   Clear
12:35 PM 56.3 °F - 18.7 °F 23% 30.06 in 10.0 mi Calm Calm - N/A   Clear
12:55 PM 58.3 °F - 18.3 °F 21% 30.04 in 10.0 mi Calm Calm - N/A   Clear
1:15 PM 59.2 °F - 17.6 °F 20% 30.03 in 10.0 mi West 5.8 mph - N/A   Clear
1:35 PM 59.7 °F - 17.8 °F 20% 30.02 in 10.0 mi Calm Calm - N/A   Clear
1:55 PM 60.4 °F - 18.3 °F 20% 30.02 in 10.0 mi Calm Calm - N/A   Clear
2:15 PM 61.3 °F - 19.2 °F 20% 30.02 in 10.0 mi Calm Calm - N/A   Clear
2:35 PM 61.0 °F - 20.5 °F 21% 30.01 in 10.0 mi Calm Calm - N/A   Clear
2:55 PM 61.9 °F - 21.4 °F 21% 30.02 in 10.0 mi Calm Calm - N/A   Clear
3:15 PM 62.1 °F - 21.9 °F 21% 30.02 in 10.0 mi Calm Calm - N/A   Clear
3:35 PM 61.9 °F - 22.1 °F 22% 30.02 in 10.0 mi Calm Calm - N/A   Clear
3:55 PM 62.1 °F - 22.6 °F 22% 30.02 in 10.0 mi Calm Calm - N/A   Clear
4:15 PM 61.3 °F - 23.4 °F 23% 30.02 in 10.0 mi Calm Calm - N/A   Clear
4:35 PM 61.0 °F - 23.2 °F 24% 30.02 in 10.0 mi Calm Calm - N/A   Clear
4:55 PM 59.4 °F - 23.7 °F 25% 30.02 in 10.0 mi Calm Calm - N/A   Clear
5:15 PM 56.8 °F - 24.4 °F 29% 30.02 in 10.0 mi Calm Calm - N/A   Clear
5:35 PM 51.1 °F - 25.9 °F 38% 30.02 in 10.0 mi Calm Calm - N/A   Clear
5:55 PM 47.3 °F - 27.3 °F 46% 30.03 in 10.0 mi Calm Calm - N/A   Clear
6:15 PM 46.9 °F - 29.3 °F 50% 30.04 in 10.0 mi Calm Calm - N/A   Clear
6:35 PM 44.1 °F - 28.9 °F 55% 30.04 in 10.0 mi Calm Calm - N/A   Clear
6:55 PM 42.8 °F - 28.4 °F 57% 30.04 in 10.0 mi Calm Calm - N/A   Clear
7:15 PM 42.3 °F - 29.1 °F 60% 30.05 in 10.0 mi Calm Calm - N/A   Clear
7:35 PM 40.3 °F - 28.4 °F 63% 30.05 in 10.0 mi Calm Calm - N/A   Clear
7:55 PM 40.6 °F - 27.9 °F 60% 30.05 in 10.0 mi Calm Calm - N/A   Clear
8:15 PM 40.5 °F - 27.7 °F 60% 30.05 in 10.0 mi Calm Calm - N/A   Clear
9:15 PM 38.5 °F - 27.5 °F 65% 30.05 in 10.0 mi Calm Calm - N/A   Clear
9:35 PM 38.8 °F - 27.5 °F 64% 30.04 in 10.0 mi Calm Calm - N/A   Clear
9:55 PM 38.5 °F - 27.9 °F 66% 30.05 in 10.0 mi Calm Calm - N/A   Clear
10:15 PM 38.5 °F - 28.0 °F 66% 30.05 in 10.0 mi Calm Calm - N/A   Clear
10:35 PM 37.4 °F - 28.0 °F 69% 30.04 in 10.0 mi Calm Calm - N/A   Clear
10:55 PM 39.0 °F - 27.9 °F 64% 30.04 in 10.0 mi Calm Calm - N/A   Clear
11:15 PM 39.0 °F - 28.0 °F 65% 30.03 in 10.0 mi Calm Calm - N/A   Clear
11:35 PM 38.3 °F - 28.0 °F 67% 30.02 in 10.0 mi Calm Calm - N/A   Clear
11:55 PM 37.6 °F - 28.4 °F 69% 30.02 in 10.0 mi Calm Calm - N/A   Clear